FLOCK 4BE-28

Last updated on Mon Sep 16 2024 00:02:03 GMT+0000 (Coordinated Universal Time)

1 60519U 24149BD 24258.95055143 .00020940 00000+0 98805-3 0 9991 2 60519 97.4393 334.0842 0007843 54.0609 306.1352 15.19456992 4429
UTC large
Height (km)
Speed (km/s)
/
Latitude / Longitude
Inclination (degrees)
Orbital Period (minutes)
Azimuth
Elevation
Range (km)
Doppler Factor

Next 0 passes for location: London (51.5072 / 0.1276)

Sorry there are no passes over London.